Location: Béaulencourt
(50.0796°N, 2.8795°E)
Time: 23:30:34
(UTC+00:00)

Cosmos 1023 Rocket - Pass Details

Date: 20 January 2026
Orbit: 731 x 768 km, 74.1° (Epoch: 18 February)

Event Time Altitude Azimuth Distance (km) Brightness Sun altitude
Exits shadow 04:56:52 33° 191° (S) 1,221 5.4 -25.2°
Maximum altitude 04:59:10 77° 111° (ESE) 765 4.5 -24.9°
Drops below altitude 10° 05:04:18 10° 26° (NNE) 2,272 7.2 -24.0°
Sets 05:06:41 0° 25° (NNE) 3,206 8.0 -23.7°
